Location: Newark
(52.3500°N, 4.8667°E)
Time: 22:54:38
(UTC+00:00)

Envisat - Visible Passes

Search period start: 16 November 2019 00:00
Search period end: 26 November 2019 00:00
Orbit: 764 x 766 km, 98.1° (Epoch: 16 November)

Date Brightness Start Highest point End Pass type
(mag) Time Alt. Az. Time Alt. Az. Time Alt. Az.
16 Nov 4.4 06:10:35 10° NNE 06:15:27 43° E 06:20:16 10° S visible
16 Nov 3.0 17:30:46 10° SSE 17:35:51 85° WSW 17:40:58 10° NNW visible
16 Nov 5.9 19:12:56 10° WSW 19:15:41 14° W 19:18:27 10° NW visible
17 Nov 5.7 05:34:21 10° NE 05:38:21 23° E 05:42:19 10° SE visible
17 Nov 3.1 16:54:15 10° SE 16:59:09 51° ENE 17:04:04 10° N visible
17 Nov 5.0 18:34:07 10° SSW 18:38:27 28° W 18:42:48 10° NW visible
18 Nov 6.3 04:59:23 10° ENE 05:01:03 11° E 05:02:43 10° ESE visible
18 Nov 3.8 16:18:20 10° ESE 16:22:38 28° ENE 16:26:56 10° N visible
18 Nov 3.8 17:56:28 10° S 18:01:26 53° W 18:06:25 10° NNW visible
19 Nov 4.8 05:59:25 10° NNE 06:04:05 35° E 06:08:44 10° SSE visible
19 Nov 2.9 17:19:30 10° SSE 17:24:35 81° ENE 17:29:42 10° NNW visible
19 Nov 5.7 19:00:52 10° SW 19:04:15 18° W 19:07:39 10° NW visible
20 Nov 5.9 05:23:24 10° NE 05:26:57 19° E 05:30:28 10° SE visible
20 Nov 3.3 16:43:09 10° SE 16:47:56 43° ENE 16:52:43 10° N visible
20 Nov 4.7 18:22:30 10° SSW 18:27:05 33° W 18:31:41 10° NNW visible
21 Nov 3.8 06:24:43 10° NNE 06:29:44 57° E 06:34:44 10° S visible
21 Nov 3.4 17:45:04 10° S 17:50:06 65° WSW 17:55:11 10° NNW visible
21 Nov 6.2 19:29:00 10° W 19:30:09 11° W 19:31:19 10° WNW visible
22 Nov 5.2 05:48:17 10° NNE 05:52:43 29° E 05:57:09 10° SSE visible
22 Nov 2.9 17:08:18 10° SSE 17:13:19 67° ENE 17:18:23 10° N visible
22 Nov 5.4 18:48:59 10° SW 18:52:50 21° W 18:56:43 10° NW visible
23 Nov 6.0 05:12:32 10° NE 05:15:31 15° E 05:18:28 10° ESE visible
23 Nov 3.5 16:32:08 10° SE 16:36:44 36° ENE 16:41:21 10° N visible
23 Nov 4.3 18:10:57 10° SSW 18:15:43 41° W 18:20:32 10° NNW visible
24 Nov 4.2 06:13:30 10° NNE 06:18:25 46° E 06:23:18 10° S visible
24 Nov 3.1 17:33:44 10° SSE 17:38:48 79° WSW 17:43:55 10° NNW visible
24 Nov 6.0 19:16:16 10° WSW 19:18:42 13° W 19:21:08 10° NW visible
25 Nov 5.5 05:37:12 10° NE 05:41:20 24° E 05:45:27 10° SE visible
25 Nov 3.1 16:57:08 10° SE 17:02:05 55° ENE 17:07:03 10° N visible
25 Nov 5.1 18:37:14 10° SSW 18:41:26 26° W 18:45:40 10° NW visible
